Location: Gull Harbor
(47.1000°N, 122.9000°W)
Time: 07:28:51
(UTC-07:00)

ARIANE 6 FM1 Upper Stage - Visible Passes

Search period start: 13 July 2025 00:00
Search period end: 23 July 2025 00:00
Orbit: 529 x 612 km, 62.0° (Epoch: 12 July)

Date Brightness Start Highest point End Pass type
(mag) Time Alt. Az. Time Alt. Az. Time Alt. Az.
13 Jul 4.6 04:42:25 10° S 04:45:31 22° ESE 04:48:38 10° ENE visible
14 Jul 3.9 04:43:22 10° S 04:46:57 32° ESE 04:50:32 10° ENE visible
15 Jul 3.2 04:44:34 10° SSW 04:48:25 49° SE 04:52:17 10° NE visible
16 Jul 2.7 04:45:57 10° SW 04:49:56 74° SE 04:53:55 10° NE visible
17 Jul 4.9 03:11:13 11° SE 03:12:54 14° ESE 03:14:58 10° E visible
17 Jul 2.6 04:47:29 10° SW 04:51:29 76° NW 04:55:29 10° NE visible
18 Jul 4.4 03:12:49 17° SSE 03:14:16 21° ESE 03:17:16 10° ENE visible
18 Jul 3.0 04:49:10 10° WSW 04:53:04 52° NW 04:57:00 10° NE visible
19 Jul 3.8 03:14:22 24° SSE 03:15:40 30° ESE 03:19:12 10° ENE visible
19 Jul 3.6 04:50:58 10° WSW 04:54:43 37° NW 04:58:28 10° NNE visible
20 Jul 3.1 03:15:52 33° S 03:17:07 45° SE 03:20:56 10° NE visible
20 Jul 4.0 04:52:53 10° W 04:56:23 28° NW 04:59:53 10° NNE visible
21 Jul 2.6 03:17:19 40° SSW 03:18:36 69° SE 03:22:35 10° NE visible
21 Jul 4.4 04:54:55 10° W 04:58:05 22° NNW 05:01:17 10° NNE visible
22 Jul 5.0 01:42:37 12° E 01:42:37 12° E 01:43:25 10° E visible
22 Jul 2.5 03:18:43 39° SW 03:20:07 81° NW 03:24:08 10° NE visible
22 Jul 4.8 04:57:02 10° WNW 04:59:51 18° NNW 05:02:39 10° NNE visible
